IBE253 LIRF-LTFM

Flight info

Callsign IBE253
Flight time 1h 15m
Altitude 41000
Route OKUNO DCT TINIX DCT ATRUP DCT ENFAR DCT VELBA DCT AYTEK
Aircraft A333/H-SDE3GHIJ2J3J5M1RVWXY/LB2D1

Departure

Time 2026-02-22 01:28
Airport Rome–Fiumicino Leonardo da Vinci International Airport (LIRF)

Arrival

Time 2026-02-22 02:44
Airport İstanbul Airport (LTFM)
Time Latitude Longitude Altitude Speed Heading
2026-02-22 01:06 41.79899 12.25191 24 ft 0 kts 115°
2026-02-22 01:18 41.79901 12.25186 21 ft 2 kts 115°
2026-02-22 01:18 41.79909 12.25163 22 ft 3 kts 115°
2026-02-22 01:18 41.79916 12.25142 26 ft 2 kts 115°
2026-02-22 01:18 41.79923 12.25120 25 ft 3 kts 91°
2026-02-22 01:19 41.79919 12.25099 26 ft 3 kts 39°
2026-02-22 01:19 41.79902 12.25086 25 ft 3 kts 22°
2026-02-22 01:19 41.79892 12.25080 24 ft 1 kts 25°
2026-02-22 01:19 41.79890 12.25079 24 ft 0 kts 25°
2026-02-22 01:21 41.79891 12.25079 24 ft 1 kts 25°
2026-02-22 01:21 41.79914 12.25094 26 ft 6 kts 25°
2026-02-22 01:21 41.79970 12.25128 25 ft 11 kts 25°
2026-02-22 01:22 41.80054 12.25180 23 ft 16 kts 25°
2026-02-22 01:22 41.80141 12.25179 23 ft 13 kts 318°
2026-02-22 01:22 41.80187 12.25072 25 ft 13 kts 291°
2026-02-22 01:22 41.80206 12.24949 21 ft 14 kts 274°
2026-02-22 01:23 41.80190 12.24810 17 ft 17 kts 251°
2026-02-22 01:23 41.80142 12.24638 14 ft 21 kts 249°
2026-02-22 01:23 41.80090 12.24454 14 ft 21 kts 251°
2026-02-22 01:23 41.80039 12.24263 14 ft 22 kts 250°
2026-02-22 01:24 41.79990 12.24073 15 ft 21 kts 259°
2026-02-22 01:24 41.79951 12.23882 16 ft 21 kts 249°
2026-02-22 01:24 41.79911 12.23736 22 ft 14 kts 251°
2026-02-22 01:24 41.79944 12.23644 24 ft 11 kts 326°
2026-02-22 01:25 41.80028 12.23634 23 ft 14 kts 29°
2026-02-22 01:25 41.80071 12.23721 22 ft 0 kts 69°
2026-02-22 01:27 41.80139 12.23965 17 ft 61 kts 70°
2026-02-22 01:27 41.80269 12.24437 13 ft 100 kts 70°
2026-02-22 01:28 41.80571 12.25534 21 ft 148 kts 71°
2026-02-22 01:28 41.80934 12.26868 527 ft 151 kts 70°
2026-02-22 01:28 41.81315 12.28191 1086 ft 154 kts 66°
2026-02-22 01:28 41.81766 12.29591 1373 ft 176 kts 61°
2026-02-22 01:29 41.82390 12.31121 1602 ft 203 kts 58°
2026-02-22 01:29 41.83165 12.32853 1903 ft 229 kts 56°
2026-02-22 01:29 41.84034 12.34721 2518 ft 241 kts 56°
2026-02-22 01:29 41.84923 12.36653 3318 ft 245 kts 56°
2026-02-22 01:30 41.85810 12.38629 4164 ft 249 kts 56°
2026-02-22 01:30 41.86696 12.40644 5053 ft 252 kts 56°
2026-02-22 01:30 41.87584 12.42696 5956 ft 256 kts 55°
2026-02-22 01:30 41.88484 12.44794 6805 ft 262 kts 55°
2026-02-22 01:31 41.89396 12.46929 7660 ft 265 kts 55°
2026-02-22 01:31 41.90312 12.49079 8617 ft 266 kts 56°
2026-02-22 01:31 41.91237 12.51251 9567 ft 268 kts 56°
2026-02-22 01:31 41.92154 12.53406 10442 ft 271 kts 56°
2026-02-22 01:32 41.93122 12.55668 10922 ft 289 kts 56°
2026-02-22 01:32 41.94162 12.58086 11262 ft 310 kts 56°
2026-02-22 01:32 41.95273 12.60673 11562 ft 329 kts 56°
2026-02-22 01:32 41.96442 12.63408 11986 ft 343 kts 56°
2026-02-22 01:33 41.97635 12.66218 12634 ft 349 kts 56°
2026-02-22 01:33 41.98840 12.69071 13357 ft 353 kts 56°
2026-02-22 01:33 42.00060 12.71960 14093 ft 356 kts 55°
2026-02-22 01:33 42.01290 12.74870 14723 ft 359 kts 55°
2026-02-22 01:34 42.02515 12.77768 15371 ft 362 kts 54°
2026-02-22 01:34 42.03760 12.80718 16096 ft 362 kts 54°
2026-02-22 01:34 42.05014 12.83683 16615 ft 365 kts 53°
2026-02-22 01:34 42.06275 12.86666 17209 ft 369 kts 53°
2026-02-22 01:35 42.07553 12.89687 17777 ft 373 kts 53°
2026-02-22 01:35 42.08844 12.92743 18325 ft 377 kts 53°
2026-02-22 01:35 42.10209 12.95985 18889 ft 381 kts 53°
2026-02-22 01:35 42.13603 13.04509 20436 ft 385 kts 55°
2026-02-22 01:36 42.16585 13.12238 21716 ft 388 kts 54°
2026-02-22 01:36 42.21636 13.25224 23918 ft 393 kts 54°
2026-02-22 01:36 42.26771 13.38459 25623 ft 400 kts 54°
2026-02-22 01:36 42.31952 13.51887 27226 ft 406 kts 54°
2026-02-22 01:37 42.34569 13.67247 28551 ft 453 kts 85°
2026-02-22 01:37 42.33579 13.84373 29773 ft 461 kts 84°
2026-02-22 01:37 42.32588 14.01749 31067 ft 465 kts 84°
2026-02-22 01:37 42.31581 14.19222 32260 ft 467 kts 84°
2026-02-22 01:38 42.30553 14.36645 33638 ft 465 kts 84°
2026-02-22 01:38 42.29501 14.54089 34726 ft 465 kts 84°
2026-02-22 01:38 42.28420 14.71523 35604 ft 467 kts 84°
2026-02-22 01:38 42.27312 14.89017 36386 ft 470 kts 84°
2026-02-22 01:39 42.26162 15.06686 37150 ft 473 kts 85°
2026-02-22 01:39 42.24983 15.24381 37819 ft 475 kts 85°
2026-02-22 01:39 42.23768 15.42164 38598 ft 476 kts 86°
2026-02-22 01:39 42.22540 15.59803 39145 ft 478 kts 87°
2026-02-22 01:40 42.21265 15.77625 39754 ft 477 kts 88°
2026-02-22 01:40 42.19967 15.95481 40186 ft 478 kts 89°
2026-02-22 01:40 42.18635 16.13377 40596 ft 481 kts 89°
2026-02-22 01:40 42.17268 16.31336 40997 ft 482 kts 90°
2026-02-22 01:41 42.15870 16.49359 41223 ft 487 kts 90°
2026-02-22 01:41 42.12925 16.86067 41222 ft 489 kts 91°
2026-02-22 01:42 42.09860 17.22920 41207 ft 504 kts 92°
2026-02-22 01:42 42.06663 17.59754 41199 ft 503 kts 92°
2026-02-22 01:43 42.05011 17.78299 41187 ft 502 kts 93°
2026-02-22 01:43 42.02455 18.06333 41178 ft 503 kts 93°
2026-02-22 01:44 42.00708 18.25055 41175 ft 503 kts 93°
2026-02-22 01:44 41.98944 18.43633 41195 ft 503 kts 94°
2026-02-22 01:45 41.97141 18.62301 41173 ft 504 kts 94°
2026-02-22 01:45 41.95301 18.81016 41178 ft 505 kts 94°
2026-02-22 01:46 41.93426 18.99772 41177 ft 506 kts 94°
2026-02-22 01:46 41.91533 19.18382 41169 ft 506 kts 95°
2026-02-22 01:47 41.89595 19.37137 41161 ft 507 kts 95°
2026-02-22 01:47 41.87623 19.55911 41148 ft 508 kts 95°
2026-02-22 01:48 41.85613 19.74739 41150 ft 508 kts 95°
2026-02-22 01:48 41.83591 19.93383 41161 ft 508 kts 96°
2026-02-22 01:49 41.81525 20.12144 41169 ft 508 kts 96°
2026-02-22 01:49 41.79426 20.30916 41193 ft 509 kts 96°
2026-02-22 01:50 41.77308 20.49664 41208 ft 508 kts 95°
2026-02-22 01:50 41.77414 20.59028 41205 ft 502 kts 81°
2026-02-22 01:50 41.78216 20.68245 41218 ft 503 kts 80°
2026-02-22 01:51 41.79985 20.86879 41229 ft 504 kts 81°
2026-02-22 01:51 41.81687 21.05546 41240 ft 504 kts 81°
2026-02-22 01:52 41.83355 21.24234 41251 ft 505 kts 81°
2026-02-22 01:52 41.84982 21.42810 41243 ft 504 kts 81°
2026-02-22 01:53 41.86597 21.61597 41265 ft 504 kts 81°
2026-02-22 01:53 41.88164 21.80180 41264 ft 504 kts 82°
2026-02-22 01:54 41.89716 21.98953 41242 ft 505 kts 82°
2026-02-22 01:54 41.91236 22.17734 41223 ft 505 kts 82°
2026-02-22 01:55 41.92716 22.36384 41206 ft 505 kts 82°
2026-02-22 01:55 41.94176 22.55183 41201 ft 506 kts 82°
2026-02-22 01:56 41.95606 22.74008 41195 ft 506 kts 83°
2026-02-22 01:56 41.96475 22.92755 41196 ft 507 kts 92°
2026-02-22 01:57 41.95933 23.11707 41169 ft 508 kts 91°
2026-02-22 01:57 41.95302 23.30713 41157 ft 509 kts 91°
2026-02-22 01:58 41.94638 23.49724 41130 ft 509 kts 92°
2026-02-22 01:58 41.93941 23.68753 41128 ft 509 kts 92°
2026-02-22 01:59 41.93214 23.87756 41154 ft 510 kts 92°
2026-02-22 01:59 41.92457 24.06722 41162 ft 510 kts 92°
2026-02-22 02:00 41.91665 24.25795 41177 ft 510 kts 93°
2026-02-22 02:00 41.90840 24.44875 41181 ft 512 kts 93°
2026-02-22 02:01 41.89986 24.63885 41186 ft 512 kts 94°
2026-02-22 02:01 41.89096 24.82986 41185 ft 512 kts 94°
2026-02-22 02:02 41.88177 25.02040 41187 ft 512 kts 94°
2026-02-22 02:02 41.87225 25.21118 41199 ft 513 kts 94°
2026-02-22 02:03 41.86492 25.35396 41204 ft 513 kts 94°
2026-02-22 02:03 41.85990 25.44961 41212 ft 514 kts 94°
2026-02-22 02:04 41.85481 25.54525 41224 ft 514 kts 94°
2026-02-22 02:04 41.84967 25.64032 41223 ft 514 kts 94°
2026-02-22 02:05 41.84442 25.73587 41028 ft 511 kts 95°
2026-02-22 02:05 41.84179 25.78326 40592 ft 509 kts 95°
2026-02-22 02:05 41.83914 25.83061 40089 ft 508 kts 95°
2026-02-22 02:06 41.83648 25.87784 39583 ft 507 kts 95°
2026-02-22 02:06 41.83380 25.92494 39090 ft 506 kts 95°
2026-02-22 02:06 41.83112 25.97192 38505 ft 505 kts 95°
2026-02-22 02:06 41.82841 26.01885 37920 ft 504 kts 95°
2026-02-22 02:07 41.82571 26.06546 37385 ft 500 kts 95°
2026-02-22 02:07 41.82300 26.11188 36850 ft 498 kts 95°
2026-02-22 02:07 41.82028 26.15807 36231 ft 496 kts 95°
2026-02-22 02:07 41.81759 26.20349 35752 ft 492 kts 95°
2026-02-22 02:08 41.81489 26.24877 35066 ft 485 kts 95°
2026-02-22 02:08 41.81220 26.29355 34285 ft 480 kts 95°
2026-02-22 02:08 41.80916 26.33796 33389 ft 475 kts 98°
2026-02-22 02:08 41.80231 26.38088 32468 ft 468 kts 107°
2026-02-22 02:09 41.79200 26.42192 31327 ft 462 kts 110°
2026-02-22 02:09 41.78100 26.46211 29955 ft 455 kts 110°
2026-02-22 02:09 41.77002 26.50166 28302 ft 450 kts 111°
2026-02-22 02:09 41.75915 26.54081 26858 ft 445 kts 111°
2026-02-22 02:10 41.74664 26.57725 26416 ft 428 kts 120°
2026-02-22 02:10 41.73110 26.61124 26166 ft 428 kts 123°
2026-02-22 02:10 41.71471 26.64463 25767 ft 428 kts 124°
2026-02-22 02:10 41.69824 26.67775 25383 ft 427 kts 124°
2026-02-22 02:11 41.68181 26.71077 24984 ft 425 kts 124°
2026-02-22 02:11 41.66532 26.74364 24600 ft 426 kts 126°
2026-02-22 02:11 41.64626 26.77375 24181 ft 423 kts 137°
2026-02-22 02:11 41.62273 26.79706 23807 ft 419 kts 151°
2026-02-22 02:12 41.59583 26.81165 23361 ft 416 kts 165°
2026-02-22 02:12 41.56754 26.81936 22983 ft 415 kts 169°
2026-02-22 02:12 41.53909 26.82541 22604 ft 413 kts 170°
2026-02-22 02:12 41.51132 26.83267 22221 ft 410 kts 163°
2026-02-22 02:13 41.48522 26.84759 21845 ft 407 kts 148°
2026-02-22 02:13 41.46338 26.87143 21458 ft 405 kts 132°
2026-02-22 02:13 41.44748 26.90222 21080 ft 405 kts 118°
2026-02-22 02:13 41.43551 26.93624 20711 ft 405 kts 114°
2026-02-22 02:14 41.42437 26.97064 20342 ft 404 kts 114°
2026-02-22 02:14 41.41331 27.00490 19962 ft 401 kts 114°
2026-02-22 02:14 41.40226 27.03879 19598 ft 398 kts 115°
2026-02-22 02:14 41.38928 27.07116 19228 ft 396 kts 125°
2026-02-22 02:15 41.37765 27.08977 18989 ft 395 kts 135°
2026-02-22 02:15 41.35593 27.11192 18620 ft 392 kts 147°
2026-02-22 02:15 41.32506 27.13676 18112 ft 391 kts 149°
2026-02-22 02:15 41.30920 27.14915 17849 ft 390 kts 149°
2026-02-22 02:16 41.28585 27.16740 17506 ft 387 kts 148°
2026-02-22 02:16 41.26274 27.18556 17144 ft 385 kts 149°
2026-02-22 02:16 41.23999 27.20349 16792 ft 385 kts 148°
2026-02-22 02:16 41.21693 27.22169 16435 ft 383 kts 148°
2026-02-22 02:17 41.19402 27.23981 16066 ft 382 kts 148°
2026-02-22 02:17 41.17123 27.25795 15711 ft 382 kts 148°
2026-02-22 02:17 41.14845 27.27610 15364 ft 380 kts 148°
2026-02-22 02:17 41.12575 27.29419 15007 ft 379 kts 148°
2026-02-22 02:18 41.10341 27.31198 14674 ft 378 kts 148°
2026-02-22 02:18 41.08081 27.32996 14320 ft 378 kts 148°
2026-02-22 02:18 41.05829 27.34786 13968 ft 377 kts 148°
2026-02-22 02:18 41.03579 27.36572 13582 ft 375 kts 148°
2026-02-22 02:19 41.01341 27.38349 13224 ft 372 kts 148°
2026-02-22 02:19 40.99157 27.40085 12901 ft 370 kts 147°
2026-02-22 02:19 40.97108 27.42127 12556 ft 368 kts 135°
2026-02-22 02:19 40.95618 27.44843 12220 ft 365 kts 117°
2026-02-22 02:20 40.94603 27.47910 11897 ft 364 kts 111°
2026-02-22 02:20 40.93705 27.50984 11670 ft 349 kts 111°
2026-02-22 02:20 40.92851 27.53937 11377 ft 338 kts 111°
2026-02-22 02:20 40.92016 27.56800 11067 ft 330 kts 111°
2026-02-22 02:21 40.91216 27.59608 10752 ft 322 kts 107°
2026-02-22 02:21 40.90808 27.62473 10459 ft 314 kts 95°
2026-02-22 02:21 40.90687 27.65321 10156 ft 307 kts 92°
2026-02-22 02:21 40.90616 27.68099 9971 ft 297 kts 91°
2026-02-22 02:22 40.90549 27.70795 9623 ft 289 kts 91°
2026-02-22 02:22 40.90480 27.73421 9182 ft 284 kts 91°
2026-02-22 02:22 40.90525 27.75988 9072 ft 283 kts 83°
2026-02-22 02:22 40.90823 27.78554 9068 ft 282 kts 79°
2026-02-22 02:23 40.91181 27.81105 9064 ft 282 kts 79°
2026-02-22 02:23 40.91562 27.83653 9056 ft 281 kts 76°
2026-02-22 02:23 40.92309 27.86015 9053 ft 278 kts 55°
2026-02-22 02:23 40.93705 27.87751 9050 ft 277 kts 30°
2026-02-22 02:24 40.95536 27.88505 9052 ft 278 kts
2026-02-22 02:24 40.97477 27.88584 9050 ft 279 kts
2026-02-22 02:24 40.99420 27.88530 9046 ft 280 kts 359°
2026-02-22 02:24 41.01370 27.88480 9014 ft 280 kts
2026-02-22 02:25 41.03270 27.88804 8996 ft 279 kts 16°
2026-02-22 02:25 41.05019 27.89868 8995 ft 277 kts 37°
2026-02-22 02:25 41.06299 27.91742 8990 ft 276 kts 61°
2026-02-22 02:25 41.06845 27.94176 8874 ft 277 kts 84°
2026-02-22 02:26 41.06915 27.96735 8744 ft 278 kts 89°
2026-02-22 02:26 41.06893 27.99279 8608 ft 274 kts 90°
2026-02-22 02:26 41.06869 28.01762 8463 ft 272 kts 90°
2026-02-22 02:26 41.06851 28.04280 8223 ft 272 kts 89°
2026-02-22 02:27 41.06840 28.06775 7969 ft 270 kts 89°
2026-02-22 02:27 41.06832 28.09270 7727 ft 271 kts 89°
2026-02-22 02:27 41.06827 28.11773 7474 ft 272 kts 89°
2026-02-22 02:27 41.06822 28.14278 7214 ft 271 kts 89°
2026-02-22 02:28 41.06817 28.16769 6957 ft 268 kts 89°
2026-02-22 02:28 41.06812 28.19237 6716 ft 268 kts 89°
2026-02-22 02:28 41.07108 28.21642 6457 ft 265 kts 64°
2026-02-22 02:28 41.08326 28.23416 6201 ft 263 kts 31°
2026-02-22 02:29 41.09878 28.24664 5924 ft 260 kts 45°
2026-02-22 02:29 41.10741 28.26715 5665 ft 259 kts 79°
2026-02-22 02:29 41.10557 28.29055 5411 ft 260 kts 113°
2026-02-22 02:29 41.09370 28.30834 5213 ft 264 kts 147°
2026-02-22 02:30 41.07631 28.31562 5100 ft 268 kts 166°
2026-02-22 02:30 41.05790 28.32016 4968 ft 269 kts 165°
2026-02-22 02:30 41.04070 28.32888 4838 ft 264 kts 148°
2026-02-22 02:30 41.02480 28.34095 4701 ft 263 kts 144°
2026-02-22 02:31 41.00960 28.35430 4575 ft 262 kts 140°
2026-02-22 02:31 40.98235 28.38537 4319 ft 253 kts 116°
2026-02-22 02:31 40.97630 28.40670 4190 ft 247 kts 95°
2026-02-22 02:32 40.97527 28.42931 4062 ft 243 kts 86°
2026-02-22 02:32 40.97536 28.45159 3984 ft 240 kts 84°
2026-02-22 02:32 40.97558 28.47366 3977 ft 241 kts 84°
2026-02-22 02:32 40.97575 28.49588 3980 ft 242 kts 86°
2026-02-22 02:33 40.97585 28.51819 3982 ft 242 kts 85°
2026-02-22 02:33 40.97592 28.54042 3990 ft 241 kts 84°
2026-02-22 02:33 40.97599 28.56250 3984 ft 241 kts 84°
2026-02-22 02:33 40.97602 28.58468 3979 ft 242 kts 86°
2026-02-22 02:34 40.97604 28.60703 3985 ft 243 kts 85°
2026-02-22 02:34 40.97603 28.62931 3990 ft 241 kts 85°
2026-02-22 02:34 40.97603 28.65073 3983 ft 229 kts 85°
2026-02-22 02:34 40.97599 28.67118 3982 ft 215 kts 85°
2026-02-22 02:35 40.97598 28.69052 3990 ft 206 kts 84°
2026-02-22 02:35 40.97765 28.70875 3982 ft 193 kts 66°
2026-02-22 02:35 40.98500 28.72281 3986 ft 186 kts 32°
2026-02-22 02:35 40.99686 28.72950 4025 ft 182 kts 17°
2026-02-22 02:36 41.00890 28.73222 4003 ft 168 kts
2026-02-22 02:36 41.02008 28.73280 3985 ft 153 kts
2026-02-22 02:36 41.03022 28.73259 3982 ft 139 kts
2026-02-22 02:36 41.03977 28.73234 3993 ft 137 kts
2026-02-22 02:37 41.04914 28.73213 3982 ft 131 kts
2026-02-22 02:37 41.05814 28.73196 3989 ft 128 kts
2026-02-22 02:37 41.06711 28.73182 3988 ft 129 kts
2026-02-22 02:37 41.07602 28.73168 3998 ft 130 kts
2026-02-22 02:38 41.08504 28.73152 3942 ft 130 kts
2026-02-22 02:38 41.09409 28.73134 3767 ft 130 kts
2026-02-22 02:38 41.10304 28.73114 3565 ft 127 kts
2026-02-22 02:38 41.11179 28.73095 3391 ft 126 kts
2026-02-22 02:39 41.12047 28.73077 3209 ft 123 kts
2026-02-22 02:39 41.12899 28.73059 3031 ft 122 kts
2026-02-22 02:39 41.13747 28.73041 2868 ft 122 kts
2026-02-22 02:39 41.14592 28.73025 2674 ft 120 kts
2026-02-22 02:40 41.15429 28.73007 2528 ft 120 kts
2026-02-22 02:40 41.16264 28.72989 2351 ft 119 kts
2026-02-22 02:40 41.17093 28.72972 2205 ft 120 kts
2026-02-22 02:40 41.17927 28.72955 2018 ft 118 kts
2026-02-22 02:41 41.18750 28.72938 1850 ft 118 kts
2026-02-22 02:41 41.19560 28.72921 1701 ft 115 kts
2026-02-22 02:41 41.20358 28.72905 1520 ft 114 kts
2026-02-22 02:41 41.21164 28.72889 1377 ft 117 kts
2026-02-22 02:42 41.21965 28.72871 1196 ft 117 kts 360°
2026-02-22 02:42 41.23580 28.72838 880 ft 115 kts 359°
2026-02-22 02:42 41.24381 28.72822 729 ft 116 kts 359°
2026-02-22 02:43 41.25183 28.72805 575 ft 113 kts 357°
2026-02-22 02:43 41.25979 28.72787 375 ft 113 kts 357°
2026-02-22 02:43 41.26747 28.72757 216 ft 106 kts 357°
2026-02-22 02:43 41.27458 28.72734 179 ft 93 kts 358°
2026-02-22 02:44 41.27836 28.72744 182 ft 12 kts
2026-02-22 02:44 41.27914 28.72756 182 ft 22 kts 15°
2026-02-22 02:44 41.28095 28.72862 181 ft 14 kts 31°
2026-02-22 02:44 41.28100 28.72866 181 ft 0 kts 31°
2026-02-22 02:46 41.28104 28.72870 181 ft 3 kts 31°
2026-02-22 02:46 41.28116 28.72899 180 ft 6 kts 83°
2026-02-22 02:46 41.28067 28.72955 180 ft 14 kts 163°
2026-02-22 02:47 41.28013 28.72965 180 ft 0 kts 178°
2026-02-22 02:47 41.27979 28.72966 180 ft 10 kts 178°
2026-02-22 02:48 41.27871 28.72969 180 ft 18 kts 179°
2026-02-22 02:48 41.27736 28.72971 180 ft 20 kts 179°
2026-02-22 02:48 41.27606 28.72975 180 ft 22 kts 179°
2026-02-22 02:48 41.27440 28.72978 180 ft 23 kts 176°
2026-02-22 02:49 41.27375 28.73051 180 ft 11 kts 123°
2026-02-22 02:49 41.27308 28.73126 180 ft 12 kts 123°
2026-02-22 02:49 41.27297 28.73188 180 ft 11 kts 92°
2026-02-22 02:49 41.27295 28.73282 180 ft 10 kts 96°
2026-02-22 02:50 41.27281 28.73310 180 ft 4 kts 147°
2026-02-22 02:50 41.27238 28.73323 181 ft 6 kts 171°
2026-02-22 02:50 41.27204 28.73325 180 ft 0 kts 178°
2026-02-22 02:51 41.27204 28.73326 180 ft 0 kts 359°